Ulmodrome de Limoux

FR-0329 · Occitanie, Francia

2 de octubre de 2022

Hora Código Tiempo Temp. Visibilidad Cielo nuboso Viento METAR/SPECI
04:30
V
12 °C 10 km+ - 290° 290° 4 kt METAR LFMK 020230Z AUTO 29004KT CAVOK 12/12 Q1026
04:00
V
13 °C 10 km+ - 290° 290° 4 kt METAR LFMK 020200Z AUTO 29004KT CAVOK 13/12 Q1026
03:30
V
13 °C 10 km+ - 310° 310° 3 kt METAR LFMK 020130Z AUTO 31003KT CAVOK 13/12 Q1026
03:00
V
13 °C 10 km+ - 280° 280° 2 kt METAR LFMK 020100Z AUTO 28002KT CAVOK 13/12 Q1027
02:30
V
14 °C 10 km+ - Var Var 2 kt METAR LFMK 020030Z AUTO VRB02KT CAVOK 14/13 Q1027
02:00
V
15 °C 10 km+ - 290° 290° 4 kt METAR LFMK 020000Z AUTO 29004KT CAVOK 15/13 Q1027
01:30
V
17 °C 10 km+ - 250° 250° 5 kt METAR LFMK 012330Z AUTO 25005KT 230V290 CAVOK 17/13 Q1027
01:00
V
17 °C 10 km+ - 230° 230° 6 kt METAR LFMK 012300Z AUTO 23006KT 200V270 CAVOK 17/13 Q1027
00:30
V
17 °C 10 km+ - 240° 240° 6 kt METAR LFMK 012230Z AUTO 24006KT 210V280 CAVOK 17/13 Q1027
00:00
V
17 °C 10 km+ - 240° 240° 6 kt METAR LFMK 012200Z AUTO 24006KT 210V270 CAVOK 17/13 Q1027

1 de octubre de 2022

Hora Código Tiempo Temp. Visibilidad Cielo nuboso Viento METAR/SPECI
23:30
V
18 °C 10 km+ - 240° 240° 6 kt METAR LFMK 012130Z AUTO 24006KT 210V270 CAVOK 18/13 Q1027
23:00
V
18 °C 10 km+ - 250° 250° 6 kt METAR LFMK 012100Z AUTO 25006KT 220V290 CAVOK 18/14 Q1027
22:30
V
19 °C 10 km+ - 260° 260° 7 kt METAR LFMK 012030Z AUTO 26007KT 230V290 CAVOK 19/13 Q1026
22:00
V
19 °C 10 km+ - 260° 260° 7 kt METAR LFMK 012000Z AUTO 26007KT 220V290 CAVOK 19/13 Q1026
21:30
V
20 °C 10 km+ - 250° 250° 6 kt METAR LFMK 011930Z AUTO 25006KT 220V290 CAVOK 20/13 Q1026
21:00
V
20 °C 10 km+ - 250° 250° 7 kt METAR LFMK 011900Z AUTO 25007KT CAVOK 20/14 Q1026
20:30
V
20 °C 10 km+ - 270° 270° 5 kt METAR LFMK 011830Z AUTO 27005KT 230V300 CAVOK 20/13 Q1025
20:00
V
21 °C 10 km+ - 270° 270° 8 kt METAR LFMK 011800Z AUTO 27008KT CAVOK 21/13 Q1025 NOSIG
19:30
V
21 °C 10 km+ - 280° 280° 9 kt METAR LFMK 011730Z AUTO 28009KT CAVOK 21/14 Q1024 NOSIG
19:00
V
22 °C 10 km+ - 280° 280° 11 kt METAR LFMK 011700Z AUTO 28011KT CAVOK 22/13 Q1024 NOSIG
18:30
V
23 °C 10 km+ - 280° 280° 13 kt METAR LFMK 011630Z AUTO 28013KT 260V320 CAVOK 23/13 Q1024 NOSIG
18:00
V
24 °C 10 km+ - 280° 280° 13 kt METAR LFMK 011600Z AUTO 28013KT 9999 FEW056 24/13 Q1024 NOSIG
17:30
V
24 °C 10 km+ 5.400 ft 290° 290° 12 kt METAR LFMK 011530Z AUTO 29012KT 260V320 9999 BKN054 24/13 Q1023 NOSIG
17:00
V
25 °C 10 km+ 5.000 ft 280° 280° 15 kt METAR LFMK 011500Z AUTO 28015KT 250V320 9999 BKN050 25/13 Q1023 NOSIG
16:30
V
24 °C 10 km+ 4.800 ft 280° 280° 14 kt METAR LFMK 011430Z AUTO 28014KT 9999 BKN048 24/13 Q1023 TEMPO 27016G27KT
16:00
V
25 °C 10 km+ 4.500 ft 270° 270° 13 kt METAR LFMK 011400Z AUTO 27013KT 240V300 9999 BKN045 25/13 Q1023 TEMPO 27016G27KT
15:30
V
24 °C 10 km+ - 300° 300° 15 kt METAR LFMK 011330Z AUTO 30015KT 260V330 9999 FEW049 24/13 Q1023 TEMPO 27016G27KT
15:00
V
24 °C 10 km+ - 280° 280° 12 kt METAR LFMK 011300Z AUTO 28012KT 240V310 9999 FEW045 24/13 Q1023 TEMPO 27016G27KT
14:30
V
24 °C 10 km+ 6.200 ft 290° 290° 14 kt METAR LFMK 011230Z AUTO 29014KT 9999 FEW045 BKN062 24/11 Q1023 TEMPO 27016G27KT
14:00
V
23 °C 10 km+ 6.200 ft 300° 300° 14 kt METAR LFMK 011200Z AUTO 30014KT 270V330 9999 FEW034 OVC062 23/11 Q1023 TEMPO 27016G27KT
13:30
V
23 °C 10 km+ 6.200 ft 300° 300° 14 kt METAR LFMK 011130Z AUTO 30014KT 9999 BKN062 BKN072 23/11 Q1023 TEMPO 27016G27KT
13:00
V
22 °C 10 km+ 6.800 ft 290° 290° 14 kt METAR LFMK 011100Z AUTO 29014KT 9999 BKN068 22/11 Q1023 TEMPO 27016G27KT
12:30
V
21 °C 10 km+ - 280° 280° 10 kt METAR LFMK 011030Z AUTO 28010KT 240V310 9999 FEW070 21/11 Q1023 TEMPO 27016G27KT
12:00
V
20 °C 10 km+ - 280° 280° 8 kt METAR LFMK 011000Z AUTO 28008KT 240V310 9999 FEW074 20/11 Q1023 TEMPO 27016G27KT
11:30
V
19 °C 10 km+ - 280° 280° 9 kt METAR LFMK 010930Z AUTO 28009KT 230V310 CAVOK 19/10 Q1023 TEMPO 27016G27KT
11:00
V
16 °C 10 km+ - 280° 280° 6 kt METAR LFMK 010900Z AUTO 28006KT 250V310 9999 FEW084 16/10 Q1023 NOSIG
10:30
V
14 °C 10 km+ 8.400 ft 270° 270° 6 kt METAR LFMK 010830Z AUTO 27006KT 230V300 9999 OVC084 14/09 Q1023 NOSIG
10:00
V
14 °C 10 km+ - 260° 260° 5 kt METAR LFMK 010800Z AUTO 26005KT 230V300 CAVOK 14/09 Q1023 NOSIG
09:30
V
12 °C 10 km+ - 260° 260° 4 kt METAR LFMK 010730Z AUTO 26004KT 220V290 CAVOK 12/09 Q1023 NOSIG
09:00
V
11 °C 10 km+ - Var 000° 0 kt METAR LFMK 010700Z AUTO 00000KT CAVOK 11/10 Q1022 NOSIG
08:30
V
10 °C 10 km+ - Var Var 2 kt METAR LFMK 010630Z AUTO VRB02KT CAVOK 10/09 Q1022 NOSIG
08:00
V
10 °C 10 km+ - Var 000° 0 kt METAR LFMK 010600Z AUTO 00000KT CAVOK 10/09 Q1022 NOSIG
07:30
V
10 °C 10 km+ - 230° 230° 3 kt METAR LFMK 010530Z AUTO 23003KT CAVOK 10/09 Q1021 NOSIG
07:00
V
9 °C 10 km+ - Var Var 2 kt METAR LFMK 010500Z AUTO VRB02KT CAVOK 09/08 Q1021 NOSIG
06:30
V
9 °C 10 km+ - Var Var 3 kt METAR LFMK 010430Z AUTO VRB03KT CAVOK 09/08 Q1021 NOSIG
06:00
V
9 °C 10 km+ - 270° 270° 3 kt METAR LFMK 010400Z AUTO 27003KT CAVOK 09/08 Q1021 NOSIG
05:30
V
9 °C 10 km+ - 270° 270° 3 kt METAR LFMK 010330Z AUTO 27003KT CAVOK 09/08 Q1021 NOSIG
05:00
V
10 °C 10 km+ - 270° 270° 3 kt METAR LFMK 010300Z AUTO 27003KT CAVOK 10/08 Q1020 NOSIG
04:30
V
10 °C 10 km+ - 270° 270° 4 kt METAR LFMK 010230Z AUTO 27004KT CAVOK 10/08 Q1020
04:00
V
11 °C 10 km+ - 270° 270° 5 kt METAR LFMK 010200Z AUTO 27005KT 230V290 CAVOK 11/08 Q1020
03:30
V
11 °C 10 km+ - 260° 260° 6 kt METAR LFMK 010130Z AUTO 26006KT 230V290 CAVOK 11/08 Q1020
03:00
V
11 °C 10 km+ - 260° 260° 5 kt METAR LFMK 010100Z AUTO 26005KT CAVOK 11/08 Q1020
02:30
V
11 °C 10 km+ - 260° 260° 6 kt METAR LFMK 010030Z AUTO 26006KT 230V290 9999 FEW043 11/08 Q1020
02:00
V
12 °C 10 km+ 4.700 ft 260° 260° 6 kt METAR LFMK 010000Z AUTO 26006KT 230V290 9999 BKN047 12/08 Q1020
01:30
V
12 °C 10 km+ 6.400 ft 270° 270° 5 kt METAR LFMK 302330Z AUTO 27005KT 9999 FEW052 BKN064 12/08 Q1020
01:00
V
12 °C 10 km+ - 270° 270° 6 kt METAR LFMK 302300Z AUTO 27006KT 230V310 9999 FEW066 12/08 Q1020
00:30
V
12 °C 10 km+ 6.800 ft 280° 280° 7 kt METAR LFMK 302230Z AUTO 28007KT 9999 SCT054 BKN068 12/08 Q1019
00:00
V
12 °C 10 km+ 5.800 ft 290° 290° 5 kt METAR LFMK 302200Z AUTO 29005KT 9999 BKN058 12/09 Q1019

30 de septiembre de 2022

Hora Código Tiempo Temp. Visibilidad Cielo nuboso Viento METAR/SPECI
23:30
V
13 °C 10 km+ - 260° 260° 5 kt METAR LFMK 302130Z AUTO 26005KT 230V290 9999 SCT056 13/08 Q1019
23:00
V
13 °C 10 km+ - 230° 230° 5 kt METAR LFMK 302100Z AUTO 23005KT 190V290 9999 SCT056 13/08 Q1019
22:30
V
14 °C 10 km+ 5.200 ft 250° 250° 6 kt METAR LFMK 302030Z AUTO 25006KT 220V280 9999 BKN052 14/08 Q1018
22:00
V
14 °C 10 km+ - 250° 250° 6 kt METAR LFMK 302000Z AUTO 25006KT CAVOK 14/08 Q1018
21:30
V
14 °C 10 km+ - 260° 260° 6 kt METAR LFMK 301930Z AUTO 26006KT 230V290 CAVOK 14/08 Q1018
21:00
V
14 °C 10 km+ 7.800 ft 270° 270° 6 kt METAR LFMK 301900Z AUTO 27006KT 9999 BKN078 14/08 Q1017
20:30
V
14 °C 10 km+ 7.600 ft 270° 270° 5 kt METAR LFMK 301830Z AUTO 27005KT 230V290 9999 BKN076 14/08 Q1017
20:00
V
14 °C 10 km+ 7.800 ft 280° 280° 6 kt METAR LFMK 301800Z AUTO 28006KT 9999 BKN078 14/08 Q1017 NOSIG
19:30
V
16 °C 10 km+ - 300° 300° 9 kt METAR LFMK 301730Z AUTO 30009KT 9999 SCT078 16/08 Q1016 NOSIG
19:00
V
17 °C 10 km+ - 290° 290° 11 kt METAR LFMK 301700Z AUTO 29011KT CAVOK 17/08 Q1015 NOSIG
18:30
V
18 °C 10 km+ - 280° 280° 13 kt METAR LFMK 301630Z AUTO 28013KT 9999 FEW049 18/08 Q1015 NOSIG
18:00
V
18 °C 10 km+ - 290° 290° 13 kt METAR LFMK 301600Z AUTO 29013KT CAVOK 18/08 Q1014 TEMPO 29016G26KT
17:30
V
18 °C 10 km+ - 290° 290° 15 kt METAR LFMK 301530Z AUTO 29015KT CAVOK 18/08 Q1014 TEMPO 29016G26KT
17:00
V
18 °C 10 km+ 7.600 ft 290° 290° 14 kt METAR LFMK 301500Z AUTO 29014KT 9999 BKN076 18/09 Q1014 TEMPO 29016G26KT
16:30
V
18 °C 10 km+ - 300° 300° 14 kt METAR LFMK 301430Z AUTO 30014KT 270V340 9999 FEW042 SCT080 18/08 Q1014 TEMPO 29016G26KT
16:00
V
18 °C 10 km+ 4.300 ft 310° 310° 12 kt METAR LFMK 301400Z AUTO 31012KT 9999 BKN043/// BKN049/// BKN080/// //////TCU 18/10 Q1014 TEMPO 29016G26KT BECMG SCT030
15:30
V
18 °C 10 km+ 4.400 ft 300° 300° 14 kt METAR LFMK 301330Z AUTO 30014KT 260V320 9999 BKN044/// BKN082/// ///CB 18/08 Q1014 TEMPO 29016G26KT BECMG SCT030
15:00
V
17 °C 10 km+ 8.000 ft 290° 290° 15 kt METAR LFMK 301300Z AUTO 29015KT 9999 SCT036 BKN080 17/09 Q1014 TEMPO 29016G26KT SCT025TCU
14:30
V
17 °C 10 km+ 6.400 ft 290° 290° 14 kt METAR LFMK 301230Z AUTO 29014KT 9999 SCT036/// SCT054/// BKN064/// ///TCU 17/09 Q1014 TEMPO 29016G26KT BECMG SCT030
14:00
V
17 °C 10 km+ - 280° 280° 16 kt METAR LFMK 301200Z AUTO 28016KT 9999 FEW024/// //////CB 17/10 Q1014 TEMPO 29016G26KT
13:30
V
17 °C 10 km+ - 290° 290° 17 kt METAR LFMK 301130Z AUTO 29017KT 9999 FEW023 SCT080 17/11 Q1014 TEMPO 29016G26KT SCT025TCU
13:00
V
15 °C 10 km+ - 280° 280° 15 kt METAR LFMK 301100Z AUTO 28015KT 9999 FEW021/// ///TCU 15/10 Q1014 TEMPO 29016G26KT
12:30
V
14 °C 10 km+ - 280° 280° 16 kt METAR LFMK 301030Z AUTO 28016KT 9999 SCT017 14/11 Q1013 TEMPO 29016G26KT SCT025TCU
12:00
M
15 °C 10 km+ 2.000 ft 290° 290° 13 kt METAR LFMK 301000Z AUTO 29013KT 9999 BKN020/// OVC027/// //////TCU 15/11 Q1013 TEMPO 29016G26KT
11:30
M
13 °C 10 km+ 1.500 ft 280° 280° 11 kt METAR LFMK 300930Z AUTO 28011KT 9999 BKN015/// BKN020/// BKN040/// ///TCU 13/11 Q1013 TEMPO 29016G26KT
11:00
M
13 °C 10 km+ 1.600 ft 290° 290° 13 kt METAR LFMK 300900Z AUTO 29013KT 9999 OVC016/// ///TCU 13/11 Q1013 TEMPO 29016G26KT 4000 SHRA BKN013 BKN060
10:30
M
13 °C 10 km+ 1.500 ft 290° 290° 15 kt METAR LFMK 300830Z AUTO 29015KT 9999 BKN015/// OVC026/// ///TCU 13/10 Q1012 TEMPO 29016G26KT 4000 SHRA BKN010 BKN060
10:00
M
12 °C 10 km+ 1.500 ft 280° 280° 11 kt METAR LFMK 300800Z AUTO 28011KT 250V310 9999 BKN015/// BKN020/// OVC025/// ///TCU 12/11 Q1012 TEMPO 4000 SHRA BECMG BKN010 BKN060
09:30
M
12 °C 8 km 1.200 ft 290° 290° 9 kt METAR LFMK 300730Z AUTO 29009KT 8000 RA OVC012/// //////CB 12/11 Q1012 BECMG NSW
09:00
M
12 °C 10 km+ 1.200 ft 290° 290° 9 kt METAR LFMK 300700Z AUTO 29009KT 9999 -RADZ OVC012/// //////CB 12/11 Q1011 NOSIG
08:30
M
12 °C 10 km+ 1.300 ft 280° 280° 5 kt METAR LFMK 300630Z AUTO 28005KT 230V300 9999 -RA BKN013/// OVC021/// ///CB 12/11 Q1011 TEMPO SCT050TCU
08:00
V
12 °C 10 km+ 3.400 ft 280° 280° 10 kt METAR LFMK 300600Z AUTO 28010KT 9999 FEW016/// SCT026/// BKN034/// //////CB 12/11 Q1010
07:30
M
11 °C 10 km+ 1.600 ft 280° 280° 6 kt METAR LFMK 300530Z AUTO 28006KT 9999 BKN016 OVC060 11/10 Q1010
07:00
M
11 °C 10 km+ 1.600 ft 270° 270° 10 kt METAR LFMK 300500Z AUTO 27010KT 9999 BKN016 BKN022 BKN047 11/11 Q1009
06:30
M
12 °C 10 km+ 2.000 ft 270° 270° 11 kt METAR LFMK 300430Z AUTO 27011KT 9999 FEW015/// BKN020/// //////TCU 12/11 Q1009
06:00
V
11 °C 10 km+ - 270° 270° 10 kt METAR LFMK 300400Z AUTO 27010KT 9999 FEW016/// ///TCU 11/10 Q1009
05:30
V
11 °C 10 km+ - 280° 280° 10 kt METAR LFMK 300330Z AUTO 28010KT 9999 SCT020/// //////TCU 11/10 Q1009
05:00
M
12 °C 10 km+ 2.000 ft 270° 270° 11 kt METAR LFMK 300300Z AUTO 27011KT 240V300 9999 BKN020/// ///TCU 12/10 Q1009
04:30
V
12 °C 10 km+ - 270° 270° 10 kt METAR LFMK 300230Z AUTO 27010KT 9999 FEW056 SCT220 12/11 Q1008
04:00
V
12 °C 10 km+ 23.000 ft 270° 270° 10 kt METAR LFMK 300200Z AUTO 27010KT 230V290 9999 SCT012 SCT017 BKN230 12/11 Q1008
03:30
M
12 °C 10 km+ 1.600 ft 270° 270° 10 kt METAR LFMK 300130Z AUTO 27010KT 240V300 9999 BKN016/// BKN030/// BKN190/// //////TCU 12/11 Q1008
03:00
M
12 °C 10 km+ 1.600 ft 270° 270° 10 kt METAR LFMK 300100Z AUTO 27010KT 9999 SCT011/// BKN016/// BKN023/// ///CB 12/12 Q1008
02:30
V
12 °C 10 km+ 6.000 ft 270° 270° 10 kt METAR LFMK 300030Z AUTO 27010KT 9999 FEW037 SCT047 BKN060 12/11 Q1007
02:00
V
12 °C 10 km+ 17.000 ft 270° 270° 10 kt METAR LFMK 300000Z AUTO 27010KT 9999 FEW037 OVC170 12/11 Q1007
01:30
V
12 °C 10 km+ 4.100 ft 270° 270° 9 kt METAR LFMK 292330Z AUTO 27009KT 230V290 9999 FEW026/// BKN041/// BKN052/// //////CB 12/11 Q1007
01:00
V
12 °C 10 km+ 4.200 ft 260° 260° 9 kt METAR LFMK 292300Z AUTO 26009KT 230V290 9999 -RA BKN042/// BKN050/// OVC074/// //////CB 12/11 Q1007
00:30
V
12 °C 10 km+ 4.200 ft 260° 260° 9 kt METAR LFMK 292230Z AUTO 26009KT 230V290 9999 OVC042/// //////CB 12/11 Q1007
00:00
V
12 °C 10 km+ 6.400 ft 260° 260° 8 kt METAR LFMK 292200Z AUTO 26008KT 240V300 9999 -RA FEW042/// BKN064/// BKN078/// //////CB 12/11 Q1007

29 de septiembre de 2022

Hora Código Tiempo Temp. Visibilidad Cielo nuboso Viento METAR/SPECI
23:30
V
12 °C 10 km+ 7.400 ft 260° 260° 7 kt METAR LFMK 292130Z AUTO 26007KT 220V290 9999 -RA FEW058/// BKN074/// OVC096/// //////CB 12/11 Q1007
23:00
V
12 °C 10 km+ 7.000 ft 260° 260° 8 kt METAR LFMK 292100Z AUTO 26008KT 230V290 9999 -RA BKN070/// OVC082/// ///CB 12/11 Q1006
22:30
V
12 °C 10 km+ 7.000 ft 260° 260° 9 kt METAR LFMK 292030Z AUTO 26009KT 9999 RA FEW015/// OVC070/// ///CB 12/11 Q1006
22:00
M
12 °C 6 km 7.200 ft 250° 250° 7 kt METAR LFMK 292000Z AUTO 25007KT 210V280 6000 -RA FEW024/// SCT047/// OVC072/// ///CB 12/12 Q1006
21:30
V
12 °C 8 km 4.300 ft 250° 250° 7 kt METAR LFMK 291930Z AUTO 25007KT 220V290 8000 RA SCT029/// BKN043/// BKN050/// //////CB 12/11 Q1005
Datos más antiguos

Nosotros y terceros seguimos tu comportamiento en Internet en nuestro sitio web con cookies. Si continúas, asumimos que estás de acuerdo con nuestra política de cookies. Más información